Location: Emory University Observatory
(33.7903°N, 84.3267°W)
Time: 02:01:54
(UTC-04:00)

Tiangong 1 - Pass Details

Date: 14 October 2017
Orbit: 294 x 321 km, 42.8° (Epoch: 16 October)

Event Time Altitude Azimuth Distance (km) Brightness Sun altitude
Rises 20:03:47 0° 306° (NW) 2,039 5.7 -13.1°
Reaches altitude 10° 20:05:56 10° 319° (NW) 1,203 4.1 -13.6°
Maximum altitude 20:08:17 26° 20° (NNE) 650 2.0 -14.1°
Enters shadow 20:08:42 25° 38° (NE) 673 1.9 -14.2°
